Location: Hollyville
(35.1913°N, 76.6852°W)
Time: 01:47:19
(UTC+00:00)

Daily predictions for brighter satellites

Satellite Brightness Start Highest point End
(mag) Time Altitude Azimuth Time Altitude Azimuth Time Altitude Azimuth
Shenzhou-11 Module 3.6 00:01:16 10° NW 00:02:40 22° NNW 00:02:40 22° NNW
SL-4 R/B 4.1 00:02:48 10° S 00:05:04 17° SE 00:05:04 17° SE
Cosmos 1943 3.3 00:00:56 10° N 00:06:24 48° ENE 00:08:58 29° ESE
CSL-04 Debris 4.5 00:03:44 10° S 00:09:05 68° WSW 00:14:28 10° NNW
ATLAS CENTAUR R/B 2.9 00:06:47 10° NW 00:10:12 31° WSW 00:13:25 10° S
Delta 2 Rocket 4.3 00:17:25 10° SW 00:22:55 50° SSE 00:23:42 46° SE
ATLAS 3B R/B 2.8 00:19:40 10° S 00:26:04 47° ESE 00:26:32 46° ESE
Cosmos 407 Rocket 3.3 00:23:43 10° NNW 00:29:00 87° ENE 00:31:50 28° SSE
Cosmos 1190 Rocket 3.8 00:25:49 10° NNW 00:31:10 78° ENE 00:32:13 57° SE
Cosmos 1420 Rocket 3.9 00:26:22 10° S 00:31:18 68° ESE 00:31:18 68° ESE
NOSS 3-2 (C) 3.3 00:29:30 10° SW 00:35:06 78° WNW 00:37:14 42° NNE
FALCON 9 R/B 2.8 00:18:18 10° WSW 00:36:47 74° S 00:38:26 54° ESE
CENTAUR R/B 2.2 00:35:38 10° SSW 00:41:17 88° ESE 00:42:26 61° NNE
Cosmos 1869 4.3 00:37:54 10° NNW 00:41:42 44° W 00:45:25 10° SSW
Ariane Rocket 3.1 00:39:01 10° S 00:44:04 73° WSW 00:49:08 10° NNW
DELTA 2 R/B (1) 4.3 00:40:53 10° WNW 00:46:11 45° SSW 00:47:14 41° S
H-2A ROCKET BODY 3.9 00:47:39 10° WSW 00:49:25 12° SW 00:50:08 11° SSW
Centaur D AC-28 3.2 00:35:15 10° WSW 00:50:28 46° S 00:51:19 44° SSE
MOS 1 4.4 00:53:45 67° NNW 00:53:45 67° NNW 00:58:40 10° NNW
Haruka 3.5 00:49:56 10° WSW 00:53:21 60° SSW 00:53:21 60° SSW
Cosmos 1605 Rocket 4.1 00:54:40 10° SSW 01:00:57 74° W 01:04:05 32° N
USA 234 4.2 01:00:28 20° S 01:04:40 44° SW 01:10:51 10° WNW
CZ-3A R/B 4.2 08:51:55 36° SSE 08:51:55 36° SSE 09:07:30 10° ESE
ATLAS 2AS CENTAUR R/B 4.0 08:57:39 37° NNE 08:57:39 37° NNE 09:02:09 10° NNE
Cosmos 2360 Rocket 4.3 09:07:51 10° SSE 09:12:09 23° E 09:16:28 10° NE
Lacrosse 5 4.3 09:16:47 15° NNE 09:16:47 15° NNE 09:17:41 10° NE
SL-16 R/B 3.8 09:16:09 28° NE 09:16:09 28° NE 09:18:46 10° NNE
Cosmos 2181 Rocket 4.3 09:33:17 10° S 09:39:25 66° E 09:45:41 10° NNE
ATLAS 3B R/B 3.1 09:48:27 31° NNW 09:51:46 60° NE 09:58:39 10° SE
ALOS 3.5 09:49:19 10° NNE 09:53:42 40° E 09:58:04 10° SSE
Cosmos 2341 Rocket 3.8 09:54:30 21° N 09:58:50 82° W 10:05:02 10° S
CZ-3 R/B 3.4 09:50:03 35° W 10:00:36 62° SSW 10:08:24 10° ESE
RESURS DK-1 4.4 10:04:57 18° NNE 10:04:57 18° NNE 10:06:08 10° NNE
NOSS 3-2 (C) 4.1 10:00:04 47° WNW 10:02:28 65° WSW 10:10:55 10° SSE
Cosmos 1703 4.1 10:05:48 45° SSE 10:05:48 45° SSE 10:08:39 10° SSE
Cosmos 2227 4.5 10:08:24 47° SW 10:08:24 47° SW 10:12:51 10° S
CENTAUR R/B 3.1 10:03:36 33° NW 10:08:00 76° WSW 10:16:45 10° SSE
Cosmos 2322 Rocket 2.6 10:13:24 44° NW 10:13:24 44° NW 10:18:02 10° N
Milstar 3 4.5 10:03:52 12° SW 10:13:54 37° SSE 10:20:52 10° E
Cosmos 2263 Rocket 2.1 10:14:20 54° WNW 10:15:11 61° WSW 10:20:45 10° S
Cosmos 2218 Rocket 4.0 10:12:07 10° N 10:18:29 85° E 10:24:45 10° S
Cosmos 1959 Rocket 4.4 10:16:28 10° N 10:22:38 90° NE 10:28:51 10° S
Cosmos 1953 Rocket 4.1 10:25:32 40° SW 10:25:32 40° SW 10:28:37 10° S
SKYMED 2 3.6 10:20:32 10° SSE 10:24:51 78° ENE 10:29:04 11° N
Cosmos 1844 Rocket 4.4 10:20:12 10° N 10:25:12 31° ENE 10:30:11 10° ESE
Orbus 7S? 4.2 10:27:27 34° NNW 10:29:13 72° NE 10:37:27 10° SE
Cosmos 1340 Rocket 4.4 10:28:00 10° SSE 10:31:33 35° E 10:35:09 10° NNE
CZ-4B DEB 4.2 10:27:15 10° NNE 10:32:48 87° E 10:38:17 10° SSW
Hubble Space Telescope 3.5 10:31:18 10° S 10:32:55 12° SSE 10:34:32 10° SE
Cosmos 1300 3.1 10:29:20 10° S 10:33:05 62° E 10:36:52 10° NNE
Meteor 1-11 4.1 10:29:02 10° N 10:34:41 80° W 10:40:22 10° S
Lacrosse 5 rocket 4.3 10:37:16 10° NNE 10:37:39 10° NNE 10:38:02 10° NNE
Cosmos 2333 Rocket 3.3 10:35:09 10° S 10:40:37 46° ESE 10:46:06 10° NE
USA 32 4.4 10:36:06 11° NNW 10:40:47 41° W 10:45:40 10° SSW
Cosmos 1900 4.3 10:38:22 18° NNW 10:42:05 82° ENE 10:46:59 10° SSE
Cosmos 2366 rocket 4.0 10:36:34 10° NNW 10:42:51 64° W 10:49:05 10° S
FENGYUN 3A 3.6 10:38:31 10° N 10:43:53 64° WNW 10:49:14 10° SSW
ATLAS 2AS CENTAUR R/B 4.3 10:45:07 19° NW 10:46:25 19° NW 10:51:53 10° N
BREEZE-M DEB (TANK) 3.5 10:48:09 27° WSW 10:49:53 80° NW 10:57:22 10° NE
Cosmos 2360 Rocket 2.5 10:50:28 10° SW 10:55:48 42° WNW 11:01:10 10° N
Lacrosse 5 3.7 10:56:00 14° NW 10:56:26 14° NNW 10:59:07 10° N
Cosmos 1371 Rocket 4.4 10:52:34 16° NW 10:56:28 41° WSW 11:01:26 10° S
Cosmos 2219 Rocket 2.7 10:51:55 10° S 10:57:29 63° ESE 11:03:06 10° NNE
SL-16 R/B 3.6 10:58:05 17° NW 10:58:05 17° NW 11:01:25 10° NNW
Alouette 2 Rocket 3.3 10:56:09 10° SSW 11:00:42 75° W 11:04:19 10° N
FALCON 9 DEB 3.2 11:00:46 25° WNW 11:02:37 64° SW 11:06:05 10° SE
Cosmos 1420 Rocket 4.1 10:57:25 10° NNW 11:02:45 85° ENE 11:08:04 10° SSE
Cosmos 2333 4.2 10:59:00 10° SSW 11:04:46 75° WNW 11:10:33 10° NNE
Cosmos 2322 3.7 11:00:14 10° SSW 11:05:49 63° WNW 11:11:27 10° NNE
NOAA 6 4.0 11:04:17 10° N 11:09:23 60° WNW 11:14:28 10° SSW
Okean O Rocket 1.7 11:07:02 10° N 11:11:21 54° WNW 11:15:38 10° SSW
Milstar 3 Cent rocket 4.2 10:55:06 12° WSW 11:11:22 62° S 11:19:12 10° ESE
DMSP B5D1-3 4.5 11:06:27 10° S 11:11:32 82° WSW 11:16:39 10° NNW
Cosmos 2058 3.5 11:08:26 10° N 11:12:37 62° E 11:16:47 10° SSE
COSMO-SKYMED 1 3.5 11:09:18 10° SSW 11:13:01 27° W 11:16:44 10° NW
Cosmos 2084 Rocket 3.7 11:09:34 10° SW 11:13:46 48° NW 11:18:03 10° NNE
Cosmos 1892 4.2 11:11:58 10° N 11:15:32 38° E 11:19:04 10° SSE
CZ-4B R/B 3.2 11:11:20 10° N 11:16:42 59° WNW 11:21:56 10° SSW
Cosmos 1844 3.9 11:14:18 10° NNW 11:19:51 74° ENE 11:25:24 10° SSE
Meteosat 1 Rocket2 4.1 11:16:45 10° WSW 11:20:29 30° S 11:23:44 10° ESE
Cosmos 1174 4.4 11:17:29 10° WSW 11:21:10 30° WNW 11:24:17 10° N
Cosmos 482 Debris 4.3 11:22:50 16° NW 11:22:58 16° NW 11:24:14 10° N
ADEOS Rocket 2.8 11:22:39 10° SSE 11:28:08 87° WSW 11:33:55 10° NNW
AQUARIUS 4.3 11:23:57 10° NNE 11:28:28 81° ESE 11:32:56 10° S
Helios 1A Rocket 3.3 11:25:47 10° N 11:29:43 43° WNW 11:33:38 10° SW
ALOS 3.6 11:27:42 10° NNW 11:30:46 18° WNW 11:33:49 10° WSW
Cosmos 1048 Rocket 4.1 11:26:43 10° SSW 11:31:51 52° WNW 11:36:57 10° N
STARLINK-29 4.0 11:29:55 11° WNW 11:33:04 36° SW 11:36:19 10° SSE
In-Cosmos 22 Rocket 4.0 11:30:26 10° NNW 11:35:45 78° W 11:41:03 10° S
CZ-4 R/B 4.3 11:32:28 10° NE 11:35:49 23° E 11:39:07 10° SSE
STARLINK-52 3.9 11:33:00 10° WNW 11:36:17 38° SW 11:39:34 10° SSE
COSMOS 2428 2.8 11:31:03 10° SSW 11:36:41 62° WNW 11:42:22 10° NNE
Cosmos 494 Rocket 4.0 11:33:03 10° SSW 11:38:14 85° WNW 11:43:24 10° NNE
Cosmos 1437 3.9 11:37:45 10° NW 11:40:11 22° W 11:42:35 10° SW
ATLAS 2A CENTAUR R/B 3.6 11:37:49 10° SW 11:41:22 37° SSE 11:52:28 10° ESE
Cosmos-2242 3.0 11:37:28 10° S 11:41:51 75° W 11:46:14 10° N
ATLAS 3B R/B 3.9 11:36:51 10° WNW 11:41:58 23° WSW 11:47:10 10° SSW
Cosmos 371 Rocket 3.8 11:37:25 10° N 11:42:13 65° ENE 11:46:59 10° SSE
IRS-1C Rocket 4.1 11:40:45 10° N 11:46:02 78° WNW 11:51:17 10° SSW
